[Iaude] MPEC K45: 2017 FP237 [a=44.27,e=0.07,i=27.0,H=9.13]

mpec at cfa.harvard.edu mpec at cfa.harvard.edu
Thu May 23 11:23:02 EDT 2024


M.P.E.C. 2024-K45                                  Issued 2024 May 23, 15:21 UT

     The Minor Planet Electronic Circulars contain information on unusual
         minor planets, routine data on comets and natural satellites,
         and occasional editorial announcements.  They are published
    on behalf of Division F of the International Astronomical Union by the
          Minor Planet Center, Smithsonian Astrophysical Observatory,
                          Cambridge, MA 02138, U.S.A.
			  
             Prepared using the Tamkin Foundation Computer Network

                              MPC at CFA.HARVARD.EDU
            URL https://www.minorplanetcenter.net/    ISSN 1523-6714

                                   2017 FP237                                   


Additional Observations:
     K17FN7P 1C2016 01 15.60637109 58 56.71 +01 31 18.7                WEK045T09
     K17FN7P 1C2016 01 15.65652309 58 56.51 +01 31 19.3                WEK045T09
     K17FN7P 4C2018 01 17.45108 10 06 35.75 -00 27 22.7          24.7 i1EK045T09
     K17FN7P 4C2018 01 17.47263 10 06 35.66 -00 27 22.4          25.0 i1EK045T09
     K17FN7P 4C2018 01 17.50222 10 06 35.54 -00 27 22.2          24.5 i1EK045T09
     K17FN7P 4C2018 01 17.53998 10 06 35.38 -00 27 22.0          25.3 i1EK045T09
     K17FN7P 4C2018 01 17.56419 10 06 35.28 -00 27 21.9          25.4 i1EK045T09
     K17FN7P 4C2018 01 17.56687 10 06 35.27 -00 27 21.9          24.8 i1EK045T09
     K17FN7P 4C2018 01 17.59100 10 06 35.18 -00 27 21.9          24.6 i1EK045T09

Observer details:
T09 Subaru Telescope, Maunakea.  Observers , H. Aihara, Y. AlSayyad, M. Ando,
    R. Armstrong, J. Bosch, E. Egami, H. Furusawa, J. Furusawa, S. Harasawa,
    Y. Harikane, B.-C. Hsieh, H. Ikeda, K. Ito, I. Iwata, T. Kodama, M. Koike,
    M. Kokubo, Y. Komiyama, X. Li, Y. Liang, Y.-T. Lin, R. H. Lupton, N. B.
    Lust, L. A. MacArthur, K. Mawatari, S. Mineo, H. Miyatake, S. Miyazaki, S.
    More, T. Morishima, H. Murayama, K. Nakajima, F. Nakata, A. J. Nishizawa,
    M. Oguri, N. Okabe, Y. Okura, Y. Ono, K. Osato, M. Ouchi, Y.-C. Pan, A. A.
    Plazas Malagon, P. A. Price, S. L. Reed, E. S. Rykoff, T. Shibuya, M.
    Simunovic, M. A. Strauss, K. Sugimori, Y. Suto, N. Suzuki, M. Takada, Y.
    Takagi, T. Takata, S. Takita, M. Tanaka, S. Tang, D. S. Taranu, T. Terai,
    Y. Toba, E. L. Turner, H. Uchiyama, B. Vijarnwannaluk, C. Z. Waters, Y.
    Yamada, N. Yamamoto, T. Yamashita.  Measurers S. Deen, A. Yamauchi.  8.3-m
    Subaru Telescope + CCD, 8.2-m f/2.0 reflector + CCD(HSC).

Orbital elements:
2017 FP237                                                                      
Epoch 2024 Mar. 31.0 TT = JDT 2460400.5                 Alexandersen            
M 336.04732              (2000.0)            P               Q                  
n   0.00334576     Peri.  240.86832     -0.90870674     +0.23383792             
a  44.2730486      Node   310.28825     +0.03629162     -0.78098030             
e   0.0650981      Incl.   26.95679     -0.41585452     -0.57912831             
P 295              H    9.13          G   0.15           U   6                  
Residuals in seconds of arc
160115 T09  0.0   0.1-    170322 T09  0.3+  0.0     170325 T09  0.2+  0.1-
160115 T09  0.1+  0.2+    170322 T09  0.2-  0.1-    170325 T09  0.1-  0.2+
170123 T09  0.3-  0.1-    170322 T09  0.1+  0.2-    180117 T09  0.1+  0.1-
170123 T09  0.0   0.1+    170322 T09  0.1-  0.3-    180117 T09  0.1+  0.1+
170123 T09  0.0   0.1-    170322 T09  0.2-  0.2-    180117 T09  0.1+  0.1+
170123 T09  0.2-  0.0     170322 T09  0.2-  0.2-    180117 T09  0.0   0.1+
170202 T09  0.1+  0.0     170322 T09  0.1-  0.2+    180117 T09  0.1-  0.1+
170202 T09  0.1+  0.1+    170322 T09  0.3-  0.3-    180117 T09  0.0   0.1+
170202 T09  0.2+  0.1+    170325 T09  0.1-  0.0     180117 T09  0.1+  0.1-
170202 T09  0.0   0.1+    170325 T09  0.2+  0.1+

Ephemeris:
2017 FP237               a,e,i = 44.27, 0.07, 27                 q = 41.3910
Date    TT    R. A. (2000) Decl.     Delta      r    Elong.  Phase     V
2024 04 23    10 23 33.9 -05 51 49  41.0795 41.6713   125.5     1.1    25.5
...
2024 05 08    10 23 10.4 -05 45 52  41.2906 41.6702   111.4     1.3    25.5
...
2024 05 16    10 23 05.9 -05 43 15  41.4140 41.6695   104.0     1.3    25.5
...
2024 05 22    10 23 06.2 -05 41 36  41.5096 41.6691    98.4     1.4    25.5
2024 05 23    10 23 06.6 -05 41 21  41.5257 41.6690    97.4     1.4    25.5
2024 05 24    10 23 07.1 -05 41 07  41.5418 41.6689    96.5     1.4    25.5
...
2024 05 30    10 23 11.7 -05 39 52  41.6392 41.6685    91.0     1.4    25.5
...
2024 06 07    10 23 22.7 -05 38 43  41.7692 41.6679    83.6     1.4    25.5
...
2024 06 22    10 23 57.9 -05 38 12  42.0056 41.6667    69.9     1.3    25.5

M. P. C. Staff               (C) Copyright 2024 MPC           M.P.E.C. 2024-K45





More information about the Iaude mailing list